#timestamp,LO_Frequency,Hit,StdDev 
1648490415.5,286047001.3,N
1648490435.4,286047000.2,N
1648490455.2,286047000.1,N
1648490475.0,286047002.8,Y
1648490475.9,286047002.8,P
1648490495.8,286047002.4,N
1648490515.6,286047000.0,N
1648490535.4,286047000.1,N
1648490555.3,286046999.9,N
1648490575.1,286047000.9,N
1648490595.9,286047002.5,N
1648490615.7,286047002.0,N
1648490635.5,286047002.3,N
1648490655.4,286047000.1,N
1648490675.2,286047002.8,N
1648490695.0,286047000.9,N
1648490696.0,286047000.9,N
1648490715.8,286046999.0,N
1648490735.6,286046998.8,N
1648490755.5,286046998.5,N
1648490775.3,286047000.0,N
1648490795.1,286047000.4,N
1648490815.9,286047002.6,N
1648490835.7,286047002.4,N
1648490855.6,286046999.9,N
1648490875.4,286047001.1,N
1648490895.2,286046999.9,N
1648490915.1,286046999.8,N
1648490916.0,286046999.8,N
1648490935.8,286047000.0,N
1648490955.6,286047000.9,N
1648490975.5,286046999.9,N
1648490995.3,286046999.7,N
1648491015.2,286046999.7,N
1648491035.9,286047000.5,N
1648491055.7,286047000.3,N
1648491075.6,286047000.8,N
1648491095.4,286047000.4,N
1648491115.2,286047000.1,N
1648491135.1,286047000.1,N
1648491136.0,286047000.1,N
1648491155.8,286047001.9,N
1648491175.7,286047002.8,N
1648491195.5,286047000.8,N
1648491215.3,286047000.1,N
1648491235.2,286047002.8,N
1648491255.0,286047004.2,Y
1648491255.9,286047004.2,P
1648491275.7,286047002.3,N
1648491295.6,286047000.1,N
1648491315.4,286047000.3,N
1648491335.3,286047002.3,N
1648491355.1,286047002.8,N
1648491356.0,286047002.8,N
1648491375.8,286047003.7,N
1648491395.7,286047004.4,Y
1648491415.5,286047001.2,P
1648491435.4,286047000.7,N
1648491455.2,286046999.4,N
1648491475.0,286046999.5,N
1648491475.9,286046999.5,N
1648491495.8,286047000.0,N
1648491515.6,286047000.0,N
1648491535.4,286046998.8,N
1648491555.3,286047001.1,N
1648491575.1,286046999.3,N
1648491595.9,286047000.7,N
1648491615.7,286046999.1,N
1648491635.5,286046996.6,Y
1648491655.4,286046996.8,P
1648491675.2,286046999.1,N
1648491695.1,286046997.0,N
1648491696.0,286046997.0,N
1648491715.8,286046997.0,N
1648491735.6,286046997.1,N
1648491755.5,286046998.8,N
1648491775.3,286046996.5,N
1648491795.2,286046999.0,N
1648491815.9,286046999.2,N
1648491835.7,286046996.6,N
1648491855.6,286047001.1,N
1648491875.4,286046998.5,N
1648491895.2,286046998.2,N
1648491915.1,286046999.0,N
1648491916.0,286046999.0,N
1648491935.8,286046999.3,N
1648491955.7,286047001.2,N
1648491975.5,286047000.4,N
1648491995.3,286047000.9,N
1648492015.2,286047000.8,N
1648492035.9,286047000.4,N
1648492055.7,286046999.8,N
1648492075.6,286047002.3,N
1648492095.4,286046999.7,N
1648492115.3,286047001.5,N
1648492135.1,286047002.7,N
1648492136.0,286047002.7,N
1648492155.8,286047000.3,N
1648492175.7,286047002.3,N
1648492195.5,286047002.1,N
1648492215.3,286047002.7,N
1648492235.2,286046999.9,N
1648492255.0,286046999.8,N
1648492255.9,286046999.8,N
1648492275.8,286047000.3,N
1648492295.6,286047001.2,N
1648492315.4,286047002.8,N
1648492335.3,286047000.6,N
1648492355.1,286046998.6,N
1648492375.8,286046998.3,N
1648492395.7,286047002.5,N
1648492415.5,286047001.9,N
1648492435.4,286047004.1,N
1648492455.2,286047001.5,N
1648492475.0,286047002.2,N
1648492475.9,286047002.2,N
1648492495.8,286047002.2,N
1648492515.6,286047002.1,N
1648492535.5,286047004.4,Y
1648492555.3,286046999.7,P
1648492575.1,286047001.2,N
1648492595.9,286047002.4,P
1648492615.7,286047002.4,N
1648492635.5,286047001.0,N
1648492655.4,286047002.8,Y
1648492675.2,286046998.7,P
1648492695.1,286046999.0,N
1648492696.0,286046999.0,N
1648492715.8,286046998.6,N
1648492735.6,286046998.3,N
1648492755.5,286047000.8,N
1648492775.3,286046998.3,N
1648492795.2,286046998.6,N
1648492815.9,286047000.7,N
1648492835.7,286046998.2,N
1648492855.6,286046998.6,N
1648492905.4,286047001.0,E
1648492915.4,286046999.0,N
1648492935.2,286046996.5,P
1648492955.0,286046998.1,N
1648492955.9,286046998.1,N
1648492975.8,286046998.4,N
1648492995.6,286046998.4,N
1648493015.5,286046998.7,N
1648493035.3,286046999.3,N
1648493055.1,286046999.1,N
1648493075.9,286046998.6,N
1648493095.7,286046998.3,N
1648493115.5,286046998.1,N
1648493135.4,286046998.4,N
1648493155.2,286046999.3,N
1648493175.1,286046998.3,N
1648493176.0,286046998.3,N
1648493195.8,286046998.4,N
1648493215.6,286046999.4,N
1648493235.5,286046998.9,N
1648493255.3,286046997.1,Y
1648493275.1,286046996.5,P
1648493295.9,286046999.0,N
1648493315.7,286046999.4,N
1648493335.6,286046998.9,N
1648493355.4,286046999.5,N
1648493375.2,286046999.3,N
1648493395.1,286046999.0,N
1648493396.0,286046999.0,N
1648493415.8,286046999.4,N
1648493435.6,286047000.7,N
1648493455.5,286046998.5,N
1648493475.3,286046999.4,N
1648493495.2,286046998.7,N
1648493515.9,286046999.0,N
1648493535.7,286046996.7,Y
1648493555.6,286047001.1,P
1648493575.4,286046998.7,N
1648493595.2,286046998.2,N
1648493615.1,286047000.8,N
1648493616.0,286047000.8,N
1648493635.8,286047002.6,N
1648493655.1,286047002.6,N
1648493675.9,286047002.4,N
1648493695.7,286047000.6,N
1648493715.5,286046998.4,N
1648493735.4,286046998.4,N
1648493755.2,286046999.6,N
1648493775.0,286046999.3,N
1648493776.0,286046999.3,N
1648493795.8,286046998.1,N
1648493815.6,286046999.8,N
1648493835.5,286047000.0,N
1648493855.3,286047000.9,N
1648493875.1,286047000.8,N
1648493895.9,286047000.3,N
1648493915.7,286047000.2,N
1648493935.6,286047000.4,N
1648493955.4,286046998.1,N
1648493975.2,286046998.4,N
1648493995.1,286047000.9,N
1648493996.0,286047000.9,N
